Meteo pe oră la Bucureşti

Astăzi, 30 Octombrie, Vineri

Timp Temperatura Precipitaţii Vânt Presiune Umiditate
00:00 +15°C° 0 mm 2 m/s 755 mmHg 71%
01:00 +15°C° 0 mm 2 m/s 755 mmHg 72%
02:00 +15°C° 0 mm 2 m/s 755 mmHg 73%
03:00 +14°C° 0 mm 2 m/s 755 mmHg 74%
04:00 +13°C° 0 mm 3 m/s 755 mmHg 75%
05:00 +13°C° 0 mm 3 m/s 755 mmHg 76%
06:00 +13°C° 0 mm 3 m/s 755 mmHg 77%
07:00 +13°C° 0 mm 3 m/s 755 mmHg 77%
08:00 +13°C° 0 mm 3 m/s 755 mmHg 77%
09:00 +14°C° 0 mm 3 m/s 755 mmHg 72%
10:00 +16°C° 0 mm 3 m/s 755 mmHg 68%
11:00 +16°C° 0 mm 3 m/s 755 mmHg 63%
12:00 +16°C° 0.3 mm 3 m/s 755 mmHg 64%
13:00 +15°C° 0.3 mm 4 m/s 755 mmHg 64%
14:00 +15°C° 0.3 mm 4 m/s 755 mmHg 64%
15:00 +14°C° 0.6 mm 5 m/s 755 mmHg 66%
16:00 +13°C° 0.6 mm 5 m/s 755 mmHg 68%
17:00 +12°C° 0.6 mm 5 m/s 755 mmHg 71%
18:00 +12°C° 0.2 mm 4 m/s 756 mmHg 68%
19:00 +13°C° 0.2 mm 3 m/s 756 mmHg 66%
20:00 +14°C° 0.2 mm 2 m/s 757 mmHg 64%
21:00 +13°C° 0 mm 2 m/s 757 mmHg 66%
22:00 +13°C° 0 mm 2 m/s 758 mmHg 68%
23:00 +13°C° 0 mm 2 m/s 758 mmHg 70%

Mâine, 31 Octombrie, Sâmbătă

Timp Temperatura Precipitaţii Vânt Presiune Umiditate
00:00 +12°C° 0 mm 2 m/s 758 mmHg 72%
01:00 +10°C° 0 mm 2 m/s 758 mmHg 73%
02:00 +10°C° 0 mm 2 m/s 758 mmHg 75%
03:00 +9°C° 0 mm 2 m/s 758 mmHg 73%
04:00 +9°C° 0 mm 2 m/s 757 mmHg 72%
05:00 +9°C° 0 mm 2 m/s 757 mmHg 71%
06:00 +9°C° 0 mm 3 m/s 757 mmHg 69%
07:00 +9°C° 0 mm 3 m/s 756 mmHg 67%
08:00 +9°C° 0 mm 3 m/s 756 mmHg 65%
09:00 +10°C° 0 mm 4 m/s 756 mmHg 63%
10:00 +12°C° 0 mm 4 m/s 755 mmHg 62%
11:00 +13°C° 0 mm 5 m/s 755 mmHg 60%
12:00 +14°C° 0 mm 5 m/s 754 mmHg 57%
13:00 +15°C° 0 mm 4 m/s 754 mmHg 55%
14:00 +18°C° 0 mm 4 m/s 754 mmHg 53%
15:00 +15°C° 0.6 mm 5 m/s 754 mmHg 60%
16:00 +11°C° 0.6 mm 7 m/s 754 mmHg 68%
17:00 +9°C° 0.6 mm 8 m/s 754 mmHg 76%
18:00 +9°C° 0.4 mm 7 m/s 755 mmHg 73%
19:00 +9°C° 0.4 mm 5 m/s 756 mmHg 70%
20:00 +10°C° 0.4 mm 4 m/s 757 mmHg 67%
21:00 +10°C° 0 mm 3 m/s 757 mmHg 68%
22:00 +9°C° 0 mm 2 m/s 758 mmHg 69%
23:00 +10°C° 0 mm 1 m/s 758 mmHg 70%

Poimâine, 1 Noiembrie, Duminică

Timp Temperatura Precipitaţii Vânt Presiune Umiditate
00:00 +9°C° 0 mm 1 m/s 758 mmHg 71%
01:00 +8°C° 0 mm 2 m/s 758 mmHg 72%
02:00 +8°C° 0 mm 2 m/s 758 mmHg 72%
03:00 +8°C° 0 mm 3 m/s 759 mmHg 75%
04:00 +8°C° 0 mm 3 m/s 759 mmHg 77%
05:00 +6°C° 0 mm 4 m/s 759 mmHg 79%
06:00 +7°C° 0 mm 4 m/s 759 mmHg 78%
07:00 +7°C° 0 mm 4 m/s 759 mmHg 76%
08:00 +7°C° 0 mm 4 m/s 759 mmHg 75%
09:00 +10°C° 0 mm 3 m/s 759 mmHg 67%
10:00 +11°C° 0 mm 3 m/s 759 mmHg 58%
11:00 +13°C° 0 mm 3 m/s 759 mmHg 50%
12:00 +13°C° 0 mm 3 m/s 758 mmHg 46%
13:00 +15°C° 0 mm 2 m/s 758 mmHg 43%
14:00 +16°C° 0 mm 2 m/s 758 mmHg 40%
15:00 +15°C° 0 mm 2 m/s 758 mmHg 43%
16:00 +14°C° 0 mm 2 m/s 758 mmHg 46%
17:00 +14°C° 0 mm 2 m/s 758 mmHg 49%
18:00 +13°C° 0 mm 2 m/s 758 mmHg 52%
19:00 +13°C° 0 mm 1 m/s 758 mmHg 55%
20:00 +12°C° 0 mm 1 m/s 758 mmHg 58%
21:00 +12°C° 0 mm 1 m/s 758 mmHg 60%
22:00 +11°C° 0 mm 1 m/s 759 mmHg 61%
23:00 +11°C° 0 mm 1 m/s 759 mmHg 63%

2 Noiembrie, Luni

Timp Temperatura Precipitaţii Vânt Presiune Umiditate
00:00 +10°C° 0 mm 1 m/s 759 mmHg 64%
01:00 +10°C° 0 mm 1 m/s 759 mmHg 64%
02:00 +10°C° 0 mm 1 m/s 759 mmHg 65%
03:00 +9°C° 0 mm 1 m/s 759 mmHg 66%
04:00 +9°C° 0 mm 1 m/s 759 mmHg 66%
05:00 +8°C° 0 mm 2 m/s 759 mmHg 67%
06:00 +8°C° 0 mm 2 m/s 759 mmHg 66%
07:00 +8°C° 0 mm 2 m/s 759 mmHg 65%
08:00 +8°C° 0 mm 2 m/s 759 mmHg 65%
09:00 +10°C° 0 mm 2 m/s 759 mmHg 58%
10:00 +12°C° 0 mm 2 m/s 759 mmHg 52%
11:00 +14°C° 0 mm 2 m/s 759 mmHg 46%
12:00 +15°C° 0 mm 2 m/s 759 mmHg 43%
13:00 +16°C° 0 mm 2 m/s 759 mmHg 40%
14:00 +17°C° 0 mm 2 m/s 759 mmHg 38%
15:00 +16°C° 0 mm 2 m/s 758 mmHg 41%
16:00 +15°C° 0 mm 2 m/s 758 mmHg 43%
17:00 +14°C° 0 mm 2 m/s 758 mmHg 46%
18:00 +14°C° 0 mm 2 m/s 759 mmHg 48%
19:00 +13°C° 0 mm 1 m/s 759 mmHg 50%
20:00 +13°C° 0 mm 1 m/s 759 mmHg 52%
21:00 +13°C° 0 mm 1 m/s 759 mmHg 52%
22:00 +13°C° 0 mm 1 m/s 759 mmHg 53%
23:00 +12°C° 0 mm 2 m/s 759 mmHg 53%

3 Noiembrie, Marţi

Timp Temperatura Precipitaţii Vânt Presiune Umiditate
00:00 +13°C° 0 mm 2 m/s 759 mmHg 53%
01:00 +13°C° 0 mm 2 m/s 759 mmHg 53%
02:00 +13°C° 0 mm 2 m/s 759 mmHg 52%
03:00 +13°C° 0 mm 2 m/s 759 mmHg 53%
04:00 +13°C° 0 mm 2 m/s 758 mmHg 54%
05:00 +13°C° 0 mm 2 m/s 758 mmHg 55%
06:00 +13°C° 0 mm 2 m/s 758 mmHg 55%
07:00 +13°C° 0 mm 2 m/s 759 mmHg 56%
08:00 +13°C° 0 mm 1 m/s 759 mmHg 57%
09:00 +14°C° 0 mm 1 m/s 759 mmHg 54%
10:00 +16°C° 0 mm 1 m/s 759 mmHg 51%
11:00 +18°C° 0 mm 1 m/s 759 mmHg 48%
12:00 +19°C° 0 mm 1 m/s 759 mmHg 47%
13:00 +19°C° 0 mm 1 m/s 759 mmHg 46%
14:00 +20°C° 0 mm 1 m/s 759 mmHg 45%
15:00 +19°C° 0 mm 1 m/s 759 mmHg 48%
16:00 +18°C° 0 mm 1 m/s 759 mmHg 51%
17:00 +18°C° 0 mm 1 m/s 759 mmHg 54%
18:00 +16°C° 0 mm 1 m/s 759 mmHg 56%
19:00 +15°C° 0 mm 1 m/s 759 mmHg 58%
20:00 +15°C° 0 mm 1 m/s 760 mmHg 60%
21:00 +14°C° 0 mm 1 m/s 760 mmHg 61%
22:00 +14°C° 0 mm 1 m/s 760 mmHg 62%
23:00 +14°C° 0 mm 1 m/s 760 mmHg 64%

4 Noiembrie, Miercuri

Timp Temperatura Precipitaţii Vânt Presiune Umiditate
00:00 +13°C° 0 mm 1 m/s 760 mmHg 64%
01:00 +13°C° 0 mm 1 m/s 760 mmHg 65%
02:00 +13°C° 0 mm 1 m/s 760 mmHg 66%
03:00 +13°C° 0 mm 1 m/s 760 mmHg 66%
04:00 +12°C° 0 mm 1 m/s 760 mmHg 67%
05:00 +12°C° 0 mm 1 m/s 760 mmHg 68%
06:00 +12°C° 0 mm 1 m/s 760 mmHg 67%
07:00 +12°C° 0 mm 1 m/s 760 mmHg 67%
08:00 +13°C° 0 mm 1 m/s 760 mmHg 67%
09:00 +14°C° 0 mm 1 m/s 760 mmHg 61%
10:00 +16°C° 0 mm 2 m/s 760 mmHg 56%
11:00 +17°C° 0 mm 2 m/s 760 mmHg 50%
12:00 +18°C° 0 mm 2 m/s 760 mmHg 49%
13:00 +18°C° 0 mm 2 m/s 760 mmHg 48%
14:00 +19°C° 0 mm 2 m/s 759 mmHg 47%
15:00 +18°C° 0 mm 2 m/s 759 mmHg 50%
16:00 +19°C° 0 mm 1 m/s 759 mmHg 52%
17:00 +18°C° 0 mm 1 m/s 759 mmHg 55%
18:00 +16°C° 0 mm 1 m/s 759 mmHg 58%
19:00 +16°C° 0 mm 2 m/s 760 mmHg 60%
20:00 +15°C° 0 mm 2 m/s 760 mmHg 63%
21:00 +15°C° 0 mm 2 m/s 760 mmHg 66%
22:00 +14°C° 0 mm 2 m/s 760 mmHg 70%
23:00 +14°C° 0 mm 1 m/s 761 mmHg 73%
Arată mai mult

Formular de consimțământ

Meteoprog și furnizorii noștri de servicii pot stoca și accesa date personale, precum cookies, identificatori de dispozitiv sau alte tehnologii similare pe dispozitivul dumneavoastră și procesa astfel de date pentru a personaliza conținutul și reclamele, dar și pentru a oferi caracteristici de social media și pentru a analiza traficul.

  • Stocarea și/sau accesarea informațiilor pe dispozitivul dumneavoastră

    Cookies, identificatori de dispozitiv sau alte informații pot fi stocate sau accesate pe dispozitiv în scopurile indicate mai sus.

  • Reclame și conținut personalizat, evaluarea reclamelor și a conținutului, informații despre audiențe și dezvoltarea produselor

    Reclamele și conținutul pot fi personalizate pe baza unui profil. Pot fi adăugate date suplimentare pentru a personaliza mai bine reclamele și conținutul. Performanța reclamelor și conținutului poate fi măsurată. Pot fi obținute informații despre utilizatorii care au văzut reclamele și conținutul. Aceste date pot fi utilizate pentru a dezvolta sau îmbunătăți experiența utilizatorilor, sistemele și software-ul.

Dând clic pe ‘Sunt de acord’, permiteți utilizarea cookie-urilor menționate, a identificatorilor de dispozitiv, balizelor web sau altor tehnologii similare. Setările pot fi modificate din browser-ul dispozitivului dumneavoastră.

În anumite scopuri, interesele legitime pot prima asupra consimțământului. Puteți citi mai multe informații în acest sens în Politica privind Confidențialitatea Datelor și Cookie.